Language: 


Des rapports , des résumés tant et plus, au choix de chacun....


Données statistiques de la station
Quotidien Rapport Novembre 21, 2017 Unités:  Anglais    Métrique   les deux
« Précédent Jour
Suivant Jour »
Quotidien Hebdomadaire Mensuel Annuel Actuel
  Haut: Bas: Moyen:
Température: TemperatureC °F 11.0 °F 12 °F
Pt de rosée: DewpointC °F 10.0 °F 11.6 °F
Humidité: Humidity % 90 % 94 %
Vitesse du vent: WindSpeedKMH mph 1.4 mph 13.2 mph
Rafales: WindSpeedGustKMH mph - -
Vent:- - WSW
Pression: PressurehPa in 1008.0 in -
Précipitation: 4.1 in    
Historical Graphs
 
 
Données statistiques pour Novembre 21, 2017
Heure Température Point de rosée Pression Vent Vitesse du vent Refales Humidité Pluie (taux horaire)
TemperatureC °F DewpointC °F PressurehPa in Calm     Humidity % HourlyPrecipMM in
00:00 12.4 °F 13.0 °F 1013.1 in West 16.3 mph 16.3 mph 98 % 0.8 in
00:05 12.4 °F 13.0 °F 1013.1 in WSW 13.0 mph 17.7 mph 98 % 0.8 in
00:15 12.4 °F 13.0 °F 1013.1 in West 11.9 mph 15.8 mph 98 % 0.5 in
00:30 12.5 °F 13.0 °F 1013.1 in West 13.0 mph 19.8 mph 98 % 1.0 in
00:35 12.5 °F 13.0 °F 1013.1 in West 10.5 mph 19.1 mph 98 % 1.0 in
00:40 12.5 °F 13.0 °F 1013.1 in WSW 16.3 mph 19.1 mph 98 % 0.8 in
00:45 12.5 °F 13.0 °F 1012.1 in West 7.9 mph 16.6 mph 98 % 0.8 in
00:50 12.4 °F 13.0 °F 1012.1 in West 10.5 mph 16.3 mph 98 % 0.8 in
00:55 12.4 °F 13.0 °F 1012.1 in West 14.8 mph 15.4 mph 98 % 1.0 in
01:00 12.4 °F 13.0 °F 1013.1 in West 10.8 mph 16.6 mph 98 % 0.8 in
01:05 12.4 °F 13.0 °F 1013.1 in WSW 2.1 mph 16.6 mph 98 % 1.0 in
01:15 12.4 °F 13.0 °F 1012.1 in WSW 10.5 mph 10.5 mph 98 % 1.3 in
01:23 12.3 °F 13.0 °F 1012.1 in WSW 14.0 mph 14.0 mph 98 % 1.3 in
01:28 12.3 °F 13.0 °F 1013.1 in WSW 9.7 mph 15.8 mph 98 % 1.3 in
01:33 12.3 °F 13.0 °F 1013.1 in West 15.8 mph 15.8 mph 98 % 1.5 in
01:34 12.3 °F 13.0 °F 1013.1 in WSW 9.7 mph 15.8 mph 98 % 1.5 in
01:35 12.3 °F 13.0 °F 1013.1 in WSW 11.6 mph 15.8 mph 98 % 1.5 in
01:40 12.4 °F 13.0 °F 1013.1 in SW 9.7 mph 15.8 mph 98 % 1.5 in
01:50 12.4 °F 13.0 °F 1013.1 in West 12.6 mph 19.8 mph 98 % 1.5 in
01:55 12.4 °F 13.0 °F 1013.1 in West 9.7 mph 16.6 mph 98 % 1.3 in
02:05 12.4 °F 13.0 °F 1013.1 in WSW 10.5 mph 19.8 mph 98 % 1.3 in
02:20 12.4 °F 13.0 °F 1013.1 in West 10.1 mph 20.9 mph 98 % 0.5 in
02:30 12.5 °F 13.0 °F 1013.1 in WSW 13.7 mph 21.2 mph 98 % 0.8 in
02:35 12.5 °F 13.0 °F 1013.1 in WSW 17.7 mph 21.2 mph 98 % 0.8 in
02:41 12.4 °F 13.0 °F 1013.1 in WSW 10.5 mph 17.7 mph 98 % 1.0 in
02:46 12.5 °F 13.0 °F 1013.1 in WSW 10.5 mph 19.5 mph 98 % 1.0 in
03:07 12.4 °F 13.0 °F 1014.1 in WSW 11.1 mph 21.2 mph 98 % 1.0 in
03:12 12.4 °F 13.0 °F 1013.1 in West 10.1 mph 20.6 mph 98 % 1.0 in
03:17 12.4 °F 13.0 °F 1013.1 in West 12.2 mph 20.6 mph 98 % 1.0 in
03:22 12.4 °F 13.0 °F 1013.1 in WSW 10.1 mph 16.9 mph 98 % 1.0 in
03:27 12.4 °F 13.0 °F 1013.1 in WSW 16.9 mph 16.9 mph 98 % 0.8 in
03:37 12.4 °F 13.0 °F 1013.1 in West 16.3 mph 24.5 mph 98 % 0.5 in
03:42 12.5 °F 13.0 °F 1013.1 in West 17.7 mph 24.5 mph 98 % 0.5 in
03:47 12.5 °F 13.0 °F 1013.1 in WSW 9.3 mph 24.5 mph 98 % 0.5 in
03:53 12.5 °F 13.0 °F 1013.1 in West 13.0 mph 21.2 mph 98 % 0.3 in
03:58 12.5 °F 13.0 °F 1013.1 in West 13.7 mph 17.7 mph 98 % 0.3 in
04:08 12.5 °F 13.0 °F 1013.1 in West 16.9 mph 16.9 mph 98 % 0.3 in
04:14 12.5 °F 13.0 °F 1013.1 in West 13.0 mph 25.3 mph 98 % 0.3 in
04:19 12.6 °F 13.0 °F 1013.1 in West 10.1 mph 25.3 mph 98 % 0.3 in
04:23 12.6 °F 13.0 °F 1013.1 in West 20.1 mph 23.3 mph 98 % 0.0 in
04:24 12.6 °F 13.0 °F 1013.1 in West 17.2 mph 23.3 mph 98 % 0.0 in
04:29 12.6 °F 13.0 °F 1013.1 in West 19.8 mph 20.1 mph 98 % 0.3 in
04:35 12.6 °F 13.0 °F 1013.1 in West 11.1 mph 23.8 mph 98 % 0.3 in
04:40 12.6 °F 13.0 °F 1013.1 in WSW 12.6 mph 20.6 mph 98 % 0.3 in
04:46 12.6 °F 13.0 °F 1013.1 in West 10.1 mph 20.6 mph 98 % 0.3 in
04:50 12.6 °F 13.0 °F 1013.1 in West 9.3 mph 19.5 mph 98 % 0.3 in
05:01 12.6 °F 13.0 °F 1013.1 in West 11.9 mph 17.7 mph 98 % 0.3 in
05:06 12.5 °F 13.0 °F 1013.1 in West 16.9 mph 17.7 mph 98 % 0.3 in
05:16 12.5 °F 13.0 °F 1013.1 in WSW 16.9 mph 19.8 mph 98 % 0.3 in
05:21 12.5 °F 13.0 °F 1013.1 in WSW 16.9 mph 19.8 mph 98 % 0.3 in
05:26 12.5 °F 13.0 °F 1013.1 in WSW 12.2 mph 23.8 mph 98 % 0.0 in
05:31 12.5 °F 13.0 °F 1013.1 in WSW 24.5 mph 24.5 mph 98 % 0.0 in
05:36 12.5 °F 13.0 °F 1013.1 in WSW 20.1 mph 27.7 mph 98 % 0.0 in
05:41 12.5 °F 13.0 °F 1012.1 in West 33.1 mph 33.1 mph 98 % 0.0 in
05:42 12.5 °F 13.0 °F 1012.1 in WSW 16.3 mph 33.1 mph 98 % 0.0 in
05:47 12.5 °F 13.0 °F 1012.1 in WSW 17.2 mph 33.1 mph 98 % 0.0 in
05:52 12.5 °F 13.0 °F 1012.1 in WSW 16.6 mph 27.7 mph 98 % 0.0 in
05:57 12.5 °F 13.0 °F 1012.1 in West 16.3 mph 28.0 mph 98 % 0.0 in
06:02 12.5 °F 13.0 °F 1012.1 in WSW 23.8 mph 28.0 mph 98 % 0.0 in
06:12 12.5 °F 13.0 °F 1012.1 in WSW 17.7 mph 27.4 mph 98 % 0.0 in
06:22 12.5 °F 13.0 °F 1012.1 in WSW 21.2 mph 24.8 mph 98 % 0.0 in
06:38 12.5 °F 13.0 °F 1012.1 in SW 20.1 mph 27.7 mph 98 % 0.0 in
06:43 12.5 °F 13.0 °F 1012.1 in WSW 18.3 mph 27.0 mph 98 % 0.0 in
06:48 12.5 °F 13.0 °F 1012.1 in WSW 21.2 mph 23.8 mph 98 % 0.0 in
06:53 12.5 °F 13.0 °F 1012.1 in WSW 19.5 mph 29.1 mph 98 % 0.0 in
06:58 12.5 °F 13.0 °F 1012.1 in WSW 19.8 mph 29.1 mph 98 % 0.0 in
06:59 12.5 °F 13.0 °F 1012.1 in WSW 21.9 mph 29.1 mph 98 % 0.0 in
07:09 12.4 °F 13.0 °F 1012.1 in WSW 21.2 mph 27.7 mph 98 % 0.0 in
07:14 12.4 °F 13.0 °F 1012.1 in West 21.2 mph 27.7 mph 98 % 0.0 in
07:19 12.4 °F 13.0 °F 1012.1 in West 13.0 mph 23.8 mph 98 % 0.0 in
07:24 12.3 °F 13.0 °F 1012.1 in WSW 20.9 mph 21.2 mph 98 % 0.0 in
07:29 12.2 °F 12.0 °F 1012.1 in WSW 21.2 mph 21.2 mph 98 % 0.0 in
07:34 12.2 °F 12.0 °F 1012.1 in West 16.6 mph 23.3 mph 98 % 0.0 in
07:44 12.1 °F 12.0 °F 1012.1 in WSW 14.0 mph 23.0 mph 98 % 0.0 in
07:49 12.1 °F 12.0 °F 1012.1 in WSW 17.2 mph 21.2 mph 98 % 0.0 in
07:54 12.0 °F 12.0 °F 1012.1 in WSW 12.6 mph 19.1 mph 98 % 0.0 in
07:59 12.0 °F 12.0 °F 1013.1 in WSW 11.9 mph 20.6 mph 98 % 0.0 in
08:04 12.0 °F 12.0 °F 1013.1 in WSW 16.3 mph 21.6 mph 98 % 0.0 in
08:09 11.9 °F 12.0 °F 1013.1 in WSW 12.6 mph 21.6 mph 98 % 0.0 in
08:14 11.9 °F 12.0 °F 1013.1 in West 20.6 mph 21.2 mph 98 % 0.0 in
08:19 11.9 °F 12.0 °F 1013.1 in WSW 14.3 mph 27.0 mph 98 % 0.0 in
08:29 11.8 °F 12.0 °F 1013.1 in WSW 21.2 mph 24.8 mph 98 % 0.0 in
08:30 11.8 °F 12.0 °F 1013.1 in WSW 20.1 mph 24.8 mph 98 % 0.0 in
08:35 11.8 °F 12.0 °F 1013.1 in WSW 12.2 mph 24.8 mph 98 % 0.0 in
08:40 11.7 °F 12.0 °F 1013.1 in WSW 16.9 mph 21.2 mph 98 % 0.0 in
08:50 11.7 °F 12.0 °F 1013.1 in WSW 14.0 mph 28.5 mph 98 % 0.0 in
08:55 11.7 °F 12.0 °F 1013.1 in WSW 18.3 mph 28.5 mph 98 % 0.0 in
09:05 11.7 °F 12.0 °F 1013.1 in WSW 17.7 mph 25.6 mph 98 % 0.0 in
09:10 11.7 °F 12.0 °F 1013.1 in West 18.0 mph 24.5 mph 98 % 0.0 in
09:30 11.7 °F 12.0 °F 1013.1 in WSW 17.7 mph 21.2 mph 98 % 0.0 in
09:35 11.7 °F 12.0 °F 1013.1 in WSW 10.8 mph 20.9 mph 98 % 0.0 in
09:40 11.7 °F 12.0 °F 1013.1 in WSW 9.0 mph 20.9 mph 98 % 0.0 in
09:50 11.8 °F 12.0 °F 1013.1 in WSW 10.5 mph 19.1 mph 98 % 0.0 in
09:55 11.8 °F 12.0 °F 1013.1 in WSW 16.6 mph 20.9 mph 98 % 0.0 in
10:00 11.9 °F 12.0 °F 1013.1 in WSW 10.1 mph 20.9 mph 98 % 0.0 in
10:15 11.9 °F 12.0 °F 1013.1 in WSW 19.1 mph 20.6 mph 98 % 0.0 in
10:35 11.9 °F 12.0 °F 1013.1 in WSW 13.7 mph 16.3 mph 98 % 0.0 in
10:40 12.0 °F 12.0 °F 1013.1 in SW 10.5 mph 16.9 mph 98 % 0.0 in
10:41 12.0 °F 12.0 °F 1013.1 in WSW 11.9 mph 16.9 mph 98 % 0.0 in
10:46 12.0 °F 12.0 °F 1013.1 in SW 9.3 mph 13.7 mph 98 % 0.0 in
10:51 12.0 °F 12.0 °F 1013.1 in SW 9.0 mph 13.0 mph 98 % 0.0 in
10:56 12.1 °F 12.0 °F 1013.1 in SW 15.8 mph 15.8 mph 98 % 0.0 in
11:06 12.1 °F 12.0 °F 1013.1 in SW 20.6 mph 20.6 mph 98 % 0.0 in
11:12 12.3 °F 13.0 °F 1013.1 in SW 17.7 mph 20.9 mph 98 % 0.0 in
11:17 12.3 °F 13.0 °F 1013.1 in WSW 12.2 mph 21.2 mph 98 % 0.0 in
11:22 12.4 °F 12.0 °F 1013.1 in SW 13.0 mph 21.2 mph 97 % 0.0 in
11:23 12.4 °F 12.0 °F 1013.1 in WSW 14.3 mph 16.9 mph 97 % 0.0 in
11:28 12.4 °F 12.0 °F 1012.1 in WSW 13.7 mph 17.2 mph 97 % 0.0 in
11:33 12.4 °F 12.0 °F 1012.1 in SW 16.3 mph 18.0 mph 96 % 0.0 in
11:43 12.3 °F 12.0 °F 1012.1 in WSW 18.3 mph 23.8 mph 95 % 0.0 in
12:00 12.5 °F 12.0 °F 1013.1 in WSW 10.5 mph 24.8 mph 95 % 0.0 in
12:05 12.6 °F 12.0 °F 1013.1 in WSW 15.4 mph 24.8 mph 95 % 0.0 in
12:15 12.6 °F 12.0 °F 1013.1 in SW 15.4 mph 20.1 mph 94 % 0.0 in
12:20 12.6 °F 12.0 °F 1013.1 in WSW 15.1 mph 21.2 mph 94 % 0.0 in
12:25 12.6 °F 12.0 °F 1013.1 in SSW 14.8 mph 21.2 mph 94 % 0.0 in
12:30 12.5 °F 12.0 °F 1013.1 in WSW 13.7 mph 20.6 mph 93 % 0.0 in
12:36 12.5 °F 12.0 °F 1013.1 in SW 23.3 mph 23.3 mph 93 % 0.0 in
12:41 12.5 °F 12.0 °F 1013.1 in WSW 15.8 mph 24.8 mph 93 % 0.0 in
12:51 12.5 °F 12.0 °F 1013.1 in WSW 21.2 mph 21.2 mph 93 % 0.0 in
12:56 12.5 °F 12.0 °F 1013.1 in WSW 11.1 mph 21.2 mph 93 % 0.0 in
13:01 12.6 °F 12.0 °F 1013.1 in WSW 13.0 mph 20.9 mph 93 % 0.0 in
13:06 12.6 °F 12.0 °F 1013.1 in SSW 16.3 mph 22.4 mph 93 % 0.0 in
13:21 12.6 °F 12.0 °F 1013.1 in WSW 12.6 mph 20.6 mph 92 % 0.0 in
13:31 12.6 °F 12.0 °F 1012.1 in WSW 14.0 mph 17.7 mph 91 % 0.0 in
13:36 12.6 °F 12.0 °F 1012.1 in SW 13.7 mph 17.7 mph 91 % 0.0 in
13:46 12.5 °F 12.0 °F 1012.1 in SSW 11.9 mph 19.5 mph 91 % 0.0 in
13:51 12.5 °F 12.0 °F 1012.1 in WSW 10.5 mph 19.5 mph 91 % 0.0 in
14:06 12.5 °F 12.0 °F 1012.1 in SW 13.7 mph 16.9 mph 91 % 0.0 in
14:11 12.5 °F 12.0 °F 1012.1 in WSW 15.4 mph 17.7 mph 91 % 0.0 in
14:16 12.5 °F 12.0 °F 1012.1 in SSW 15.4 mph 17.7 mph 91 % 0.0 in
14:27 12.6 °F 12.0 °F 1012.1 in SW 13.0 mph 16.6 mph 92 % 0.0 in
14:32 12.6 °F 12.0 °F 1012.1 in WSW 13.7 mph 19.5 mph 91 % 0.0 in
14:47 12.7 °F 12.0 °F 1011.1 in SW 16.9 mph 19.8 mph 91 % 0.0 in
14:52 12.7 °F 12.0 °F 1011.1 in WSW 11.1 mph 19.8 mph 91 % 0.0 in
15:02 12.6 °F 12.0 °F 1011.1 in SSW 11.6 mph 16.9 mph 91 % 0.0 in
15:07 12.6 °F 12.0 °F 1011.1 in WSW 16.3 mph 19.5 mph 91 % 0.0 in
15:12 12.6 °F 12.0 °F 1011.1 in WSW 14.3 mph 19.5 mph 91 % 0.0 in
15:17 12.6 °F 12.0 °F 1011.1 in SW 14.3 mph 17.7 mph 91 % 0.0 in
15:22 12.5 °F 11.0 °F 1011.1 in WSW 10.1 mph 20.6 mph 90 % 0.0 in
15:27 12.5 °F 11.0 °F 1011.1 in SW 12.2 mph 20.6 mph 90 % 0.0 in
15:32 12.5 °F 11.0 °F 1011.1 in SSW 11.9 mph 15.8 mph 90 % 0.0 in
15:37 12.4 °F 11.0 °F 1011.1 in SW 10.1 mph 15.8 mph 90 % 0.0 in
15:42 12.3 °F 11.0 °F 1010.0 in SW 16.9 mph 16.9 mph 90 % 0.0 in
15:47 12.3 °F 11.0 °F 1010.0 in WSW 9.3 mph 16.9 mph 90 % 0.0 in
15:52 12.3 °F 11.0 °F 1010.0 in WSW 10.1 mph 16.9 mph 90 % 0.0 in
15:57 12.2 °F 11.0 °F 1010.0 in SW 13.7 mph 15.8 mph 90 % 0.0 in
16:02 12.2 °F 11.0 °F 1010.0 in SW 11.1 mph 15.8 mph 90 % 0.0 in
16:17 12.1 °F 11.0 °F 1011.1 in WSW 12.2 mph 20.1 mph 90 % 0.0 in
16:28 12.0 °F 11.0 °F 1010.0 in WSW 17.7 mph 17.7 mph 90 % 0.0 in
16:33 12.0 °F 11.0 °F 1010.0 in SSW 9.7 mph 17.7 mph 90 % 0.0 in
16:38 11.9 °F 11.0 °F 1010.0 in SW 8.7 mph 17.2 mph 91 % 0.0 in
16:39 11.9 °F 11.0 °F 1010.0 in WSW 14.0 mph 15.1 mph 91 % 0.0 in
16:44 11.9 °F 11.0 °F 1011.1 in SW 9.7 mph 16.3 mph 91 % 0.0 in
16:49 11.9 °F 11.0 °F 1011.1 in SW 12.6 mph 16.3 mph 91 % 0.0 in
16:54 11.9 °F 11.0 °F 1011.1 in SSW 11.9 mph 17.2 mph 91 % 0.0 in
17:04 11.9 °F 11.0 °F 1011.1 in SSW 15.8 mph 16.3 mph 91 % 0.0 in
17:09 11.9 °F 11.0 °F 1011.1 in SW 14.0 mph 15.8 mph 91 % 0.0 in
17:14 11.9 °F 11.0 °F 1011.1 in South 9.3 mph 15.8 mph 91 % 0.3 in
17:20 11.8 °F 10.0 °F 1011.1 in SSW 9.3 mph 15.8 mph 91 % 0.3 in
17:25 11.8 °F 10.0 °F 1011.1 in SSW 8.7 mph 16.3 mph 91 % 0.3 in
17:30 11.8 °F 10.0 °F 1011.1 in SW 12.6 mph 16.3 mph 91 % 0.3 in
17:40 11.7 °F 10.0 °F 1011.1 in SSW 9.7 mph 15.4 mph 91 % 0.3 in
17:45 11.7 °F 10.0 °F 1011.1 in SW 10.5 mph 15.4 mph 91 % 0.3 in
17:50 11.7 °F 10.0 °F 1011.1 in SW 12.6 mph 16.3 mph 91 % 0.3 in
17:55 11.7 °F 10.0 °F 1011.1 in SSW 12.6 mph 16.6 mph 91 % 0.3 in
18:00 11.7 °F 10.0 °F 1011.1 in SW 14.8 mph 17.7 mph 91 % 0.3 in
18:05 11.7 °F 10.0 °F 1011.1 in WSW 12.6 mph 17.7 mph 91 % 0.3 in
18:10 11.7 °F 10.0 °F 1011.1 in SW 11.9 mph 17.7 mph 91 % 0.3 in
18:25 11.6 °F 10.0 °F 1011.1 in WSW 12.2 mph 17.7 mph 91 % 0.0 in
18:30 11.6 °F 10.0 °F 1011.1 in SW 10.5 mph 17.7 mph 91 % 0.0 in
18:40 11.6 °F 10.0 °F 1011.1 in SW 12.2 mph 15.4 mph 91 % 0.0 in
18:45 11.6 °F 10.0 °F 1011.1 in WSW 9.0 mph 15.4 mph 91 % 0.0 in
18:51 11.6 °F 10.0 °F 1011.1 in WSW 10.5 mph 13.7 mph 91 % 0.0 in
18:56 11.6 °F 10.0 °F 1011.1 in West 13.0 mph 14.0 mph 91 % 0.0 in
19:01 11.5 °F 10.0 °F 1011.1 in SW 14.0 mph 16.6 mph 92 % 0.0 in
19:06 11.5 °F 10.0 °F 1011.1 in WSW 10.5 mph 16.6 mph 92 % 0.0 in
19:16 11.5 °F 10.0 °F 1010.0 in SW 10.1 mph 14.3 mph 91 % 0.0 in
19:21 11.5 °F 10.0 °F 1010.0 in SSW 10.1 mph 13.7 mph 91 % 0.0 in
19:26 11.5 °F 10.0 °F 1010.0 in WSW 9.0 mph 14.0 mph 91 % 0.0 in
19:31 11.5 °F 10.0 °F 1010.0 in SSW 15.8 mph 16.3 mph 91 % 0.0 in
19:36 11.5 °F 10.0 °F 1010.0 in SW 8.7 mph 16.3 mph 91 % 0.0 in
19:41 11.5 °F 10.0 °F 1010.0 in SSW 7.9 mph 15.4 mph 91 % 0.0 in
19:46 11.5 °F 10.0 °F 1010.0 in SW 12.6 mph 15.4 mph 91 % 0.0 in
20:06 11.5 °F 10.0 °F 1010.0 in SW 5.8 mph 12.6 mph 91 % 0.0 in
20:11 11.5 °F 10.0 °F 1010.0 in SW 7.9 mph 12.2 mph 91 % 0.0 in
20:16 11.5 °F 10.0 °F 1010.0 in SW 11.9 mph 12.6 mph 91 % 0.0 in
20:21 11.5 °F 10.0 °F 1010.0 in SSW 10.5 mph 14.0 mph 90 % 0.0 in
20:26 11.5 °F 10.0 °F 1010.0 in SW 10.5 mph 14.0 mph 90 % 0.0 in
20:31 11.5 °F 10.0 °F 1010.0 in SW 8.7 mph 13.0 mph 90 % 0.0 in
20:37 11.5 °F 10.0 °F 1010.0 in SSW 13.7 mph 13.7 mph 90 % 0.0 in
20:42 11.4 °F 10.0 °F 1010.0 in SSW 9.3 mph 14.0 mph 91 % 0.0 in
20:52 11.4 °F 10.0 °F 1010.0 in WSW 10.1 mph 17.7 mph 91 % 0.0 in
20:57 11.3 °F 10.0 °F 1010.0 in SSW 6.9 mph 14.0 mph 91 % 0.0 in
21:02 11.2 °F 10.0 °F 1010.0 in South 5.8 mph 12.6 mph 91 % 0.0 in
21:07 11.2 °F 10.0 °F 1010.0 in SW 9.7 mph 13.7 mph 91 % 0.0 in
21:12 11.2 °F 10.0 °F 1010.0 in South 10.1 mph 13.7 mph 92 % 0.0 in
21:17 11.2 °F 10.0 °F 1010.0 in South 1.8 mph 13.0 mph 92 % 0.0 in
21:22 11.1 °F 10.0 °F 1010.0 in SW 12.6 mph 13.0 mph 92 % 0.0 in
21:32 11.0 °F 10.0 °F 1010.0 in SSW 9.7 mph 12.6 mph 92 % 0.0 in
21:37 11.0 °F 10.0 °F 1010.0 in SSW 10.5 mph 14.0 mph 92 % 0.0 in
21:47 11.0 °F 10.0 °F 1010.0 in SSW 10.1 mph 15.8 mph 93 % 0.0 in
21:52 11.0 °F 10.0 °F 1010.0 in SSW 10.5 mph 13.7 mph 93 % 0.0 in
22:02 11.0 °F 10.0 °F 1009.0 in South 3.5 mph 10.5 mph 93 % 0.0 in
22:07 11.1 °F 10.0 °F 1009.0 in SSW 9.3 mph 11.9 mph 93 % 0.0 in
22:12 11.1 °F 10.0 °F 1009.0 in SSW 1.4 mph 13.0 mph 93 % 0.0 in
22:17 11.1 °F 10.0 °F 1009.0 in SSW 4.3 mph 15.1 mph 93 % 0.0 in
22:27 11.2 °F 10.0 °F 1010.0 in SSW 9.7 mph 16.9 mph 93 % 0.0 in
22:32 11.2 °F 10.0 °F 1010.0 in SW 12.2 mph 16.6 mph 93 % 0.0 in
22:37 11.2 °F 10.0 °F 1010.0 in SSW 8.7 mph 16.6 mph 92 % 0.0 in
22:42 11.3 °F 10.0 °F 1009.0 in SSW 10.5 mph 17.7 mph 92 % 0.0 in
22:48 11.3 °F 10.0 °F 1009.0 in South 12.2 mph 17.7 mph 92 % 0.0 in
22:58 11.3 °F 10.0 °F 1008.0 in SSW 5.8 mph 20.1 mph 92 % 0.0 in
23:08 11.3 °F 10.0 °F 1008.0 in WSW 10.1 mph 15.4 mph 92 % 0.0 in
23:13 11.4 °F 10.0 °F 1009.0 in SSW 9.7 mph 16.6 mph 92 % 0.0 in
23:18 11.4 °F 10.0 °F 1009.0 in SW 11.9 mph 16.6 mph 91 % 0.0 in
23:28 11.4 °F 10.0 °F 1009.0 in SSW 14.0 mph 16.9 mph 91 % 0.0 in
23:33 11.4 °F 10.0 °F 1009.0 in SSW 12.2 mph 15.8 mph 91 % 0.0 in
23:39 11.4 °F 10.0 °F 1009.0 in SSW 12.2 mph 19.5 mph 91 % 0.0 in
23:43 11.4 °F 10.0 °F 1009.0 in SSW 17.2 mph 19.5 mph 91 % 0.0 in
23:49 11.4 °F 10.0 °F 1009.0 in SSW 16.6 mph 20.9 mph 91 % 0.0 in
23:54 11.4 °F 10.0 °F 1009.0 in SSW 13.0 mph 23.0 mph 91 % 0.0 in
Le Gheer Warneton
Courtoisie de Weather Underground - 2 mb

Mise a jour : 21/02/2018 11:46:12
Généré par Cumulus 1.9.4 (1099)